sat.trackr.live / text

‹ back to catalog

STARLINK-34974

NORAD 65221 · 2025-176Z

PAYLOAD ACTIVE UNKNOWN

§ Identity

Operator
Country
US
Launch date
2025-08-14
Launch site
AFETR
Launch vehicle
Mass (kg)
RCS (m²)

Purposes: comms

External: N2YO · Heavens-Above · Gunter

§ Orbital elements

Epoch: 2026-05-24T23:58:58.287072Z

Period
93.85 min
Inclination
53.1584°
Eccentricity
0.0001300
Mean motion
15.34403605 rev/d
Perigee alt
461.8 km
Apogee alt
463.6 km
Semi-major
6,840.8 km
B*
5.5199e-4
RAAN
157.5759°
Arg perigee
124.5764°
Mean anomaly
235.5361°
Rev number
4,481

§ Raw data

STARLINK-349741 65221U 25176Z   26144.99928573  .00018321  00000+0  55199-3 0  99922 65221  53.1584 157.5759 0001300 124.5764 235.5361 15.34403605 44819

JSON: /api/v1/satellites/65221 · /tle

For live sub-satellite position, see the globe view (requires WebGL).

§ Visibility from observer

Set your observer location to see the next 7 days of passes ≥ 10°. The values pass through the URL so the page stays shareable.

No JS? Fill the form by hand. The geolocation button needs JavaScript.